THOR ABLESTAR DEB, 132

Orbit data source: Space-Track

THOR ABLESTAR DEB, 132 is space debris in LEO originally from a launch on Thu, 29 Jun 1961 UTC launched from the Air Force Eastern Test Range (AFETR). Debris objects in space refer to the collection of defunct objects orbiting the Earth. Examples of debris include non-operational satellites, rocket bodies, and fragments generated from explosions, collisions, or faulty payload assembly.

Loading next visibility...
Identifier
132, 1961-015S
Orbit
LEO
Country
Flag of USUS
Related business
Manufacturer
Unknown
Mission
Spacecraft
Bus & Motor
Unknown
Mass
Unknown
Launch date (UTC)
1961-06-29 (64 years ago)
Launch vehicle
Unknown
Launch site
Air Force Eastern Test Range (AFETR)
Object type
Payload
Rocket body
Debris
Shape & HBR
Unknown shape, 0.4 m
Radar Cross Section
Medium (>0.1 m² and <1 m²)

Expand to show TLE details & history
Last TLE update: 16 hours ago

TLE from 16 hours ago
0 THOR ABLESTAR DEB
1 00132U 61015S   25301.39848164  .00000046  00000-0  90955-4 0  9995
2 00132  66.6597 184.8365 0076525 341.0058  18.8170 13.94725378271349
Epoch: 2025-10-28T09:33Z
TLE epoch observation values (Epoch: 2025-10-28T09:33:48.813Z)
Latitude
-0.00005°
Longitude
4.39655°
Altitude
861.419 km
Speed
7.449 km/s
True Right ascension
12h 19m 20s
True Declination
0° 00' 00"
Sunlit
Object was in daylight at epoch
Visualization orbit readout
Latitude
Unknown
Longitude
Unknown
Altitude
Unknown
Speed
Unknown
Apparent Right ascension
Unknown
Apparent Declination
Unknown
Sunlit
N/A
Visualization observer readout
Local Sidereal Time
21:28:59
Azimuth
Unknown
Elevation
Unknown
Doppler factor
Unknown
Orbital elements
Apogee altitude
966.301 km
Perigee altitude
854.748 km
Semi-major axis
7,288.661 km
Eccentricity
0.00765
Inclination
66.6597°
RAAN
184.8365°
Arg. of periapsis
341.0058°
True anomaly
19.10243°
Mean anomaly
18.817°
Eccentric anomaly
18.95945°
Mean motion
3.48796 °/min
Orbital period
103.21 mins
BSTAR
0.000090955
Loading maneuver chart data...
Computing Atmospheric mass density...

Documentation

Showing up to 5 results
|